COSMOS 2251 DEB, 33821

Orbit data source: Space-Track

COSMOS 2251 DEB, 33821 is space debris in LEO originally from a launch on Wed, 16 Jun 1993 UTC launched from the Plesetsk Missile And Space Complex (PKMTR). The debris from Iridium 33, an American commercial communications satellite, has been tracked extensively since its accidental collision with the defunct Russian satellite Cosmos 2251 in 2009. This event, occurring at high speed in low Earth orbit (LEO), generated thousands of pieces of space debris, significantly increasing the risk of further collisions. The Iridium 33 debris cloud has impacted space traffic management and orbital debris mitigation strategies, making it a subject of ongoing study in space situational awareness.

Loading next visibility...
Identifier
33821, 1993-036BN
Orbit
LEO
Country
Flag of CISCIS
Related business
Manufacturer
Unknown
Mission
Spacecraft
Bus & Motor
Unknown
Mass
Unknown
Launch date (UTC)
1993-06-16 (33 years ago)
Launch vehicle
Unknown
Launch site
Plesetsk Missile And Space Complex (PKMTR)
Object type
Payload
Rocket body
Debris
Shape & HBR
Unknown shape, 0.2 m
Radar Cross Section
Medium (>0.1 m² and <1 m²)

Expand to show TLE details & history
Last TLE update: 10 hours ago

TLE from 10 hours ago
0 COSMOS 2251 DEB
1 33821U 93036BN  26178.14585297  .00043625  00000-0  10999-2 0  9993
2 33821  74.0255  83.0935 0033998  67.5675 292.9127 15.39056388780092
Epoch: 2026-06-27T03:30Z
TLE epoch observation values (Epoch: 2026-06-27T03:30:01.696Z)
Latitude
-0.00007°
Longitude
115.32221°
Altitude
442.661 km
Speed
7.652 km/s
True Right ascension
05h 32m 22s
True Declination
0° 00' 00"
Sunlit
Object was in daylight at epoch
Visualization orbit readout
Latitude
Unknown
Longitude
Unknown
Altitude
Unknown
Speed
Unknown
Apparent Right ascension
Unknown
Apparent Declination
Unknown
Sunlit
N/A
Visualization observer readout
Local Sidereal Time
00:24:28
Azimuth
Unknown
Elevation
Unknown
Doppler factor
Unknown
Orbital elements
Apogee altitude
469.613 km
Perigee altitude
423.208 km
Semi-major axis
6,824.548 km
Eccentricity
0.0034
Inclination
74.0255°
RAAN
83.0935°
Arg. of periapsis
67.5675°
True anomaly
292.55326°
Mean anomaly
292.9127°
Eccentric anomaly
292.73304°
Mean motion
3.84975 °/min
Orbital period
93.51 mins
BSTAR
0.0010999

Documentation

Showing up to 5 results
|